TITAN 3C TRANSTAGE DEB, 1959

Orbit data source: Space-Track

TITAN 3C TRANSTAGE DEB, 1959 is space debris in LEO originally from a launch on Fri, 15 Oct 1965 UTC launched from the Air Force Eastern Test Range (AFETR). Debris objects in space refer to the collection of defunct objects orbiting the Earth. Examples of debris include non-operational satellites, rocket bodies, and fragments generated from explosions, collisions, or faulty payload assembly.

Loading next visibility...
Identifier
1959, 1965-082GU
Orbit
LEO
Country
Flag of USUS
Related business
Manufacturer
Unknown
Mission
Spacecraft
Bus & Motor
Unknown
Mass
Unknown
Launch date (UTC)
1965-10-15 (60 years ago)
Launch vehicle
Unknown
Launch site
Air Force Eastern Test Range (AFETR)
Object type
Payload
Rocket body
Debris
Shape & HBR
Unknown shape, 0.2 m
Radar Cross Section
Small (<0.1 m²)

Expand to show TLE details & history
Last TLE update: 19 hours ago

TLE from 19 hours ago
0 TITAN 3C TRANSTAGE DEB
1  1959U 65082GU  26035.40075741  .00000652  00000-0  12392-3 0  9992
2  1959  31.7903  75.0424 0062160 114.2926 246.4219 14.58895965194351
Epoch: 2026-02-04T09:37Z
TLE epoch observation values (Epoch: 2026-02-04T09:37:05.440Z)
Latitude
-0.00003°
Longitude
156.20181°
Altitude
713.175 km
Speed
7.492 km/s
True Right ascension
05h 00m 10s
True Declination
0° 00' 00"
Sunlit
Object was in partial shadow at epoch
Visualization orbit readout
Latitude
Unknown
Longitude
Unknown
Altitude
Unknown
Speed
Unknown
Apparent Right ascension
Unknown
Apparent Declination
Unknown
Sunlit
N/A
Visualization observer readout
Local Sidereal Time
06:42:59
Azimuth
Unknown
Elevation
Unknown
Doppler factor
Unknown
Orbital elements
Apogee altitude
744.381 km
Perigee altitude
656.381 km
Semi-major axis
7,078.518 km
Eccentricity
0.00622
Inclination
31.7903°
RAAN
75.0424°
Arg. of periapsis
114.2926°
True anomaly
245.7711°
Mean anomaly
246.4219°
Eccentric anomaly
246.0963°
Mean motion
3.64443 °/min
Orbital period
98.78 mins
BSTAR
0.00012392

Documentation

Showing up to 5 results
|